{"data":{"norad_id":58153,"epoch":"2026-09-20T20:12:06.915744Z","epoch_age_seconds":110901,"freshness":"FRESH","line1":"1 58153U 23166D   26263.84174671  .00001323  00000+0  54373-4 0  9991","line2":"2 58153  53.1589  32.0395 0001338  87.2031 272.9124 15.31715424163070","mean_motion":15.31715424,"eccentricity":0.0001338,"inclination_deg":53.1589,"raan_deg":32.0395,"arg_perigee_deg":87.2031,"mean_anomaly_deg":272.9124,"bstar":5.4373e-5,"rev_number":16307,"period_min":94.012241271261,"perigee_km":469.77764387993,"apogee_km":471.61039106021,"semimajor_km":6848.8310174701,"source":"CELESTRAK","updated_at":"2026-09-21T09:00:33.795996Z"}}